Retour au catalogue

STARLINK-32738

ActifCommunicationsVLEO
NORAD 63046·PAYLOAD·🇺🇸 United States

Lancé Feb 18, 2025 depuis Cape Canaveral Space Force Station

Loading…

Prochains Passages (prochaines 24 heures)

TLE

FraisSource: CelesTrak SupGP

Époque: Sep 14, 2026, 21:36 UTC

1 63046C 25034T   26257.90048611 -.00028537  00000+0 -84339-3 0  2577
2 63046  53.1569  96.0210 0001294  89.8681 193.1207 15.34395213    14

Suivez STARLINK-32738 en temps réel avec AllMySat

Download on the App Store